Theta_e
293 294 294 295 294 294 294 295 294 293 294 293 288 289 293 293 288 286 292 294 292 294 296 298 299 300 300 301 302 303 304 305 307 307 306 306 306 306 306 307 308 308 307 306 306 306 305 303 302 301 300 300 300 300 300 299 299 300 301 301 300 300 300 299 300 300 299 298 297 296 295 294 294 294 292 289 288 288 288 288 288 287 287 286 286 285 285
291 293 293 294 293 293 293 293 294 295 295 294 293 293 294 294 292 294 294 294 294 297 298 299 301 303 303 303 304 304 304 304 305 306 306 307 307 307 307 308 309 310 308 307 307 307 306 304 302 301 300 299 299 298 298 299 299 299 300 299 299 298 298 298 299 299 299 297 296 294 294 293 293 294 292 289 288 287 286 287 286 286 285 285 285 285 285
287 291 293 294 293 293 290 293 294 294 294 294 296 294 294 294 294 295 294 293 293 298 300 301 302 303 304 304 302 302 303 304 304 304 303 305 308 309 309 308 308 309 309 309 308 307 306 306 305 303 302 301 300 298 298 298 298 298 299 298 298 298 297 298 298 298 298 296 294 293 293 293 293 293 290 287 287 286 286 286 285 285 284 284 283 283 283
285 289 290 291 292 291 289 289 291 292 292 290 292 292 296 293 291 293 293 290 292 297 301 302 302 302 302 301 302 302 304 303 303 303 303 304 304 306 307 308 308 309 309 309 308 307 306 306 305 304 303 302 299 298 298 297 298 298 297 297 297 297 297 297 297 297 296 294 293 292 292 292 292 290 288 287 286 285 285 285 285 285 284 283 283 283 284
284 289 291 289 289 287 284 285 290 292 293 294 295 295 296 296 296 291 288 290 297 299 300 299 300 301 301 302 302 303 304 304 304 303 304 304 305 305 306 306 307 307 308 308 309 309 308 307 305 305 304 301 299 299 298 297 297 296 296 296 296 296 296 296 296 296 295 293 292 291 291 289 289 288 287 286 286 285 284 285 284 284 283 283 283 283 283
285 287 287 288 285 278 280 293 296 296 293 293 292 292 294 296 297 294 296 297 299 300 299 298 299 299 300 302 304 305 305 304 304 305 305 305 305 306 306 307 307 307 308 309 310 310 309 308 307 306 303 302 300 299 298 297 296 295 295 295 295 295 295 295 295 295 294 290 290 290 289 288 288 287 286 285 285 285 285 284 284 283 284 283 283 282 282
285 288 287 284 277 279 291 296 298 299 298 297 295 295 296 297 298 298 297 297 298 299 300 300 301 302 303 304 304 304 304 305 305 304 304 304 305 305 306 306 306 307 307 308 309 308 308 307 304 301 300 299 299 297 296 295 295 294 294 294 293 294 293 294 294 293 291 290 289 289 288 287 286 286 285 285 285 285 284 284 283 283 283 283 283 283 283
288 285 284 277 279 289 294 296 297 299 299 298 296 294 297 298 298 298 297 298 299 300 300 301 302 302 302 303 303 303 304 304 304 303 303 304 305 305 306 306 307 307 307 308 308 309 306 302 299 299 298 298 296 295 295 294 293 293 293 292 292 293 292 293 292 292 290 289 288 288 287 286 286 285 285 285 285 284 284 284 284 284 284 283 283 283 283
281 284 284 283 290 288 290 291 292 295 293 293 292 288 293 298 299 299 298 299 300 300 301 301 302 301 301 299 301 303 304 305 305 305 304 305 305 306 306 307 307 308 309 308 307 304 300 299 297 297 297 295 295 293 292 293 292 291 291 291 291 291 291 291 291 291 290 289 288 287 286 285 285 285 284 284 284 285 283 283 283 283 283 283 283 283 283
288 283 281 282 282 279 285 293 297 300 301 300 300 294 290 299 300 301 300 299 300 300 300 300 300 299 296 294 297 302 304 305 305 305 306 306 306 306 306 306 306 306 304 297 297 299 296 295 296 295 294 293 293 291 291 290 290 290 290 290 291 291 290 291 290 290 289 288 287 286 286 285 285 285 285 285 284 284 284 283 282 282 283 283 283 283 283
286 283 280 280 278 282 290 292 295 299 300 301 301 293 287 297 298 300 300 299 300 300 300 299 299 296 292 293 298 302 304 303 304 304 304 305 305 305 305 305 304 303 300 298 294 294 295 293 292 293 292 291 291 290 289 289 289 289 289 290 290 290 290 290 290 289 288 288 287 286 285 285 285 284 284 284 284 284 284 284 283 283 283 283 283 283 283
285 283 281 279 285 284 290 294 296 297 300 304 296 283 284 297 299 299 299 298 299 299 300 300 298 295 292 294 299 303 304 304 304 304 304 304 304 304 304 301 298 297 293 292 292 292 292 293 290 290 290 290 289 289 289 289 288 288 289 289 290 290 290 289 289 288 287 286 286 285 285 285 285 285 285 284 284 284 283 283 283 282 282 282 281 282 282
284 284 282 285 285 290 293 293 296 299 304 298 286 280 288 295 296 298 299 299 299 299 298 299 296 298 300 301 303 304 304 301 301 301 300 298 296 296 297 297 290 293 292 294 293 292 292 290 289 290 290 289 288 289 288 288 287 288 289 290 289 289 289 288 287 287 287 286 285 285 285 285 285 285 284 284 283 283 282 282 282 281 281 281 281 281 281
283 284 282 282 286 291 293 296 297 300 294 284 283 289 291 292 292 293 294 294 296 299 299 299 299 300 302 301 302 302 303 303 302 299 298 295 293 291 290 289 290 291 291 290 289 288 288 289 289 289 288 288 288 288 287 287 288 289 289 289 288 288 286 286 286 286 285 285 285 285 285 285 284 283 284 284 283 283 282 281 281 280 280 280 280 280 280
286 285 282 280 277 288 290 293 293 294 288 289 291 291 293 293 293 294 294 294 295 296 295 297 297 299 300 301 301 302 302 302 301 299 296 295 294 292 289 288 289 290 289 288 288 287 287 287 288 288 287 286 286 286 286 287 287 287 287 287 286 286 286 285 285 285 285 284 284 284 284 284 283 282 283 283 283 282 281 281 281 280 280 280 280 279 279
282 282 280 281 288 290 294 293 288 292 295 295 294 293 290 294 294 294 294 294 295 295 294 293 293 294 294 296 298 300 300 300 298 293 292 292 291 290 290 290 288 289 289 288 287 286 286 287 287 287 286 285 285 286 285 286 286 286 286 286 285 285 284 284 284 284 284 284 284 284 284 283 282 281 282 282 282 282 281 281 280 279 279 280 279 278 278
287 284 287 291 291 292 294 294 294 295 296 295 294 293 292 292 294 295 294 294 295 295 293 293 292 292 295 295 297 297 297 297 295 292 291 291 290 290 289 288 287 287 288 286 286 285 285 285 286 285 286 285 285 284 284 285 285 285 284 284 284 283 283 283 283 283 283 283 283 283 283 283 282 282 282 282 281 282 281 281 280 279 279 279 278 278 278
291 289 288 290 289 291 291 295 296 295 295 295 292 291 291 293 295 296 294 294 293 292 292 291 291 292 294 295 296 296 296 295 294 291 289 289 289 288 287 286 286 286 286 286 285 284 284 285 285 285 285 285 284 283 284 284 284 284 283 282 282 282 282 282 282 283 282 282 283 283 283 284 283 282 281 281 281 281 281 280 280 279 279 279 279 278 278
286 280 292 288 289 292 293 293 294 293 293 293 293 291 292 293 295 295 294 293 292 291 290 290 290 292 293 293 294 295 295 294 292 290 289 288 288 287 286 285 285 285 285 285 284 284 283 284 284 284 284 285 284 284 283 283 283 283 282 282 282 282 282 282 282 282 282 282 282 283 283 283 283 282 282 282 281 281 281 280 280 279 279 279 279 279 279
284 284 289 290 292 294 294 293 291 292 293 293 292 292 293 294 295 293 292 290 289 290 288 290 290 291 292 292 292 293 292 291 290 288 288 287 286 285 285 284 284 285 285 284 284 283 282 282 283 283 283 283 283 283 283 283 283 283 282 282 282 282 282 282 282 283 282 280 282 282 282 282 282 281 282 282 281 281 281 280 280 279 279 279 280 280 280
285 288 288 289 290 292 293 293 293 293 293 293 292 293 293 294 293 293 293 291 291 290 290 290 289 289 289 291 291 290 290 289 288 287 286 286 285 285 283 283 284 285 285 284 283 282 280 281 281 281 282 282 283 283 283 283 282 282 282 281 281 281 282 282 282 282 282 282 283 282 282 281 281 282 282 282 282 280 281 283 283 282 281 281 281 282 281
281 281 284 286 282 282 289 291 293 293 295 293 293 293 293 294 294 294 292 293 291 289 288 287 287 287 289 290 290 288 289 288 287 286 285 285 284 284 284 284 284 284 284 283 281 279 279 279 279 279 279 280 282 282 282 283 283 282 281 281 281 281 281 281 281 281 281 281 281 280 280 278 278 278 279 282 282 281 279 280 281 283 283 281 281 281 279
280 286 288 290 289 289 291 293 295 295 296 295 294 294 294 294 295 295 294 292 292 291 289 287 286 287 288 289 289 288 287 287 286 286 285 284 284 283 283 283 283 282 281 279 278 277 277 278 278 278 278 278 280 281 282 282 282 281 281 280 280 280 280 280 280 281 280 280 280 280 280 279 278 277 278 279 281 281 281 280 281 281 281 282 282 281 278
286 288 288 290 289 288 291 293 294 295 296 296 294 294 295 294 294 294 293 292 291 291 292 289 287 287 287 288 288 287 287 286 285 284 285 285 284 283 283 283 282 280 279 278 277 276 276 276 276 276 276 277 278 279 281 281 281 281 281 280 280 280 280 280 280 280 280 279 279 279 279 279 278 278 277 277 277 280 281 280 281 281 280 280 281 281 280
286 290 291 291 290 291 293 294 295 296 296 294 293 293 293 293 294 294 292 292 291 290 289 290 289 288 287 287 287 287 287 285 285 284 284 283 283 282 282 282 281 280 279 279 277 276 275 275 275 275 275 274 274 276 278 280 280 281 281 281 280 280 279 279 279 278 278 278 278 278 278 278 278 278 277 277 276 276 278 281 281 280 280 280 281 281 281
291 291 292 293 292 292 293 293 293 294 294 294 292 291 292 290 291 290 291 291 291 290 289 289 290 289 287 287 287 286 285 284 283 283 283 282 282 281 281 281 281 280 279 277 276 275 275 274 274 274 273 272 271 272 274 278 280 280 280 280 280 279 278 278 278 277 277 278 278 277 277 278 278 278 277 277 277 276 275 276 277 279 280 280 280 280 280
291 291 291 289 289 290 292 290 290 293 293 293 292 292 292 292 290 290 290 289 289 288 289 289 289 288 287 286 286 286 285 283 283 282 283 282 281 282 282 281 280 279 277 276 275 274 273 274 274 273 271 269 268 268 272 278 279 278 278 277 277 274 273 274 277 277 277 277 276 276 277 277 277 277 277 277 277 276 276 275 275 275 275 277 279 280 279
290 290 287 284 285 287 289 291 292 291 290 290 290 290 291 291 288 287 286 287 286 286 285 285 286 285 285 285 285 283 283 282 282 282 282 282 282 281 280 279 278 277 276 275 274 273 273 273 272 270 268 267 267 268 272 276 277 276 276 275 275 275 275 275 276 277 277 276 277 276 276 277 277 276 276 276 276 276 276 274 273 272 271 272 275 279 280
278 274 275 276 278 280 284 287 289 290 290 291 291 289 288 286 286 286 286 287 287 286 285 285 285 285 285 285 285 283 282 282 282 282 282 280 278 278 277 277 276 275 274 273 272 272 272 272 271 269 267 266 267 267 271 275 276 275 275 275 275 274 275 276 276 276 276 276 276 276 276 274 274 275 275 275 275 275 274 273 272 271 270 271 272 272 273
269 270 269 272 275 279 281 283 285 287 288 289 288 287 287 285 285 286 287 287 286 285 286 285 284 283 284 284 283 284 283 283 281 281 278 276 276 275 275 274 273 273 272 271 271 271 271 271 270 268 266 265 266 267 271 274 275 274 274 275 275 275 275 274 274 274 274 273 272 272 273 273 274 274 273 273 273 273 272 271 270 270 270 271 272 271 270
266 267 268 272 277 276 275 279 283 285 285 283 281 284 285 284 284 284 285 286 286 285 284 283 283 282 282 282 282 281 280 279 277 275 274 273 273 273 273 274 274 273 273 271 270 271 271 270 268 265 263 263 265 267 271 272 272 272 272 271 271 271 272 273 274 273 272 271 271 272 271 272 272 271 271 271 271 271 271 270 270 270 270 271 271 270 268
264 266 271 276 269 268 270 272 272 272 271 270 271 273 275 278 281 283 284 284 285 285 284 283 282 282 282 281 278 276 275 275 274 273 272 272 271 271 272 272 273 271 271 269 269 269 268 267 265 263 262 263 265 267 270 271 271 272 271 269 269 270 271 272 272 271 270 270 271 271 270 271 271 270 270 270 270 270 270 270 269 269 269 269 269 269 268
264 267 271 269 265 265 266 267 266 266 265 266 267 269 270 271 275 280 283 284 284 284 282 282 282 282 280 277 275 274 273 272 272 271 271 270 268 267 267 268 268 267 266 266 266 266 266 264 262 262 263 264 265 266 269 271 272 271 271 271 270 269 268 271 270 270 269 270 270 270 270 270 270 269 269 269 268 268 268 268 268 268 268 268 268 266 266
262 263 265 263 262 262 263 263 264 263 263 264 265 266 267 267 268 271 276 280 282 282 282 282 281 279 277 275 274 273 272 272 272 271 269 268 266 265 264 265 265 264 263 263 264 263 262 262 262 263 263 264 265 266 267 269 271 271 270 270 269 269 269 268 269 269 269 269 269 266 269 268 270 270 269 268 268 267 267 267 266 266 266 266 264 263 265
262 262 263 263 264 264 264 263 262 261 261 261 262 262 263 264 265 267 270 272 276 281 281 279 277 276 275 274 273 272 273 274 275 271 269 266 265 264 264 264 263 263 263 262 261 261 261 261 262 262 263 263 264 265 266 268 269 269 269 269 267 267 267 267 269 268 267 266 266 267 267 267 266 265 265 266 266 266 266 265 265 265 265 263 262 262 264
260 260 260 261 262 262 262 261 261 260 260 260 260 259 260 261 263 264 265 266 269 273 276 275 274 274 274 273 272 272 273 274 271 269 266 264 264 264 264 264 264 263 262 261 261 261 262 261 260 261 263 263 263 263 264 266 267 267 267 267 266 266 266 265 265 265 265 266 266 265 264 263 263 263 263 264 264 264 264 263 264 263 263 262 262 262 263
259 259 259 259 260 261 260 260 260 259 259 259 258 258 259 260 262 263 264 265 268 271 274 274 273 273 273 273 273 272 271 270 268 266 264 264 264 265 265 265 265 264 265 262 261 261 261 260 259 261 262 262 262 261 261 261 266 266 266 266 266 265 265 265 265 264 264 263 263 261 261 261 262 262 262 263 263 263 262 262 262 262 262 262 262 262 261
258 258 258 258 259 259 259 259 260 259 259 258 258 259 259 259 261 261 262 264 266 267 270 271 272 272 271 270 269 267 266 265 265 264 264 265 265 265 266 266 266 268 266 261 261 261 260 260 260 261 262 261 261 260 260 260 262 266 266 266 265 265 264 264 263 262 262 262 261 262 262 262 262 262 262 262 262 261 262 261 261 261 261 261 261 260 260
256 258 258 258 258 257 258 259 259 259 258 258 258 258 259 260 260 260 262 264 265 265 266 268 267 268 268 268 266 264 264 264 264 264 264 265 266 263 258 256 256 256 258 260 260 260 260 260 261 261 260 259 259 260 259 259 261 265 265 265 265 264 264 263 263 261 261 261 262 262 262 262 262 261 261 261 261 260 260 260 260 260 260 259 259 259 259
255 256 256 256 256 256 257 257 258 258 258 258 257 257 258 258 258 259 261 263 264 264 265 267 268 269 267 265 264 262 262 263 264 264 263 260 258 257 258 257 256 257 258 258 259 259 258 259 260 261 260 260 260 260 259 260 261 263 264 264 264 263 262 261 261 261 261 261 260 260 261 261 260 260 260 260 260 260 259 258 258 259 259 258 258 259 258
255 255 255 255 255 256 256 256 256 257 257 257 257 257 257 257 258 258 260 261 261 261 263 265 268 266 263 262 261 260 260 262 262 262 262 262 262 263 261 258 257 257 257 258 258 258 259 259 261 260 260 259 259 258 260 259 262 262 263 262 262 262 262 262 261 261 261 260 260 261 260 259 259 259 259 259 259 259 259 259 258 258 259 258 258 258 257
254 255 255 255 255 255 255 255 255 255 256 256 256 255 255 256 257 257 258 259 259 259 259 259 259 260 259 259 258 258 257 258 257 256 256 257 260 263 259 256 256 255 256 257 258 259 260 259 259 259 259 259 258 256 258 260 261 261 261 261 261 261 261 261 260 260 260 260 260 260 259 260 259 259 258 258 258 258 258 258 258 258 258 258 258 258 258
254 254 254 255 255 255 255 255 255 255 255 255 255 254 255 255 257 258 258 258 258 258 258 258 258 257 258 258 258 257 257 258 258 257 256 255 255 256 257 256 256 255 256 258 259 259 259 259 258 257 256 258 258 257 258 261 261 260 260 259 259 259 259 259 259 259 259 259 259 259 259 259 259 259 258 258 258 258 258 257 257 258 257 257 257 257 257
254 254 255 255 255 255 255 255 255 255 254 254 255 255 255 255 255 256 257 258 258 258 258 258 258 258 259 259 259 259 260 260 260 259 257 256 255 255 256 256 256 256 256 258 258 258 257 257 256 256 255 256 257 258 260 260 260 260 259 259 259 259 258 258 259 259 259 259 259 259 258 258 259 259 258 258 258 257 257 257 257 257 257 257 257 257 257
254 254 255 255 255 255 255 255 254 254 254 255 255 255 255 254 254 255 255 256 256 256 257 257 257 257 256 256 255 255 255 256 256 260 260 258 256 255 256 255 256 256 257 257 257 257 256 256 256 256 256 257 257 258 260 260 260 260 260 260 259 259 259 258 258 258 257 257 258 258 258 258 258 258 258 258 257 258 257 257 257 257 256 257 257 257 257
253 254 255 255 255 255 255 255 256 256 255 255 255 255 255 255 255 255 255 255 255 255 256 256 256 256 256 255 255 256 256 256 256 255 255 257 257 255 256 255 256 256 256 256 257 256 256 256 256 257 257 258 258 260 260 260 260 260 259 259 259 258 258 258 258 258 258 257 258 258 258 258 257 257 257 257 257 257 257 256 256 257 257 257 257 257 257
253 253 253 254 254 255 256 256 256 256 255 255 254 254 255 255 255 255 255 255 255 255 256 256 256 256 257 258 258 257 256 255 255 256 256 256 255 255 255 256 256 256 257 257 257 257 257 257 257 257 258 258 258 260 260 260 260 259 259 258 258 258 258 258 258 257 258 257 256 255 255 255 256 257 256 255 256 256 256 256 256 256 257 256 256 255 255
253 253 253 253 254 255 256 256 255 255 255 254 254 255 255 256 255 255 256 256 256 256 256 256 256 256 256 257 257 258 259 258 255 255 257 257 257 257 257 257 257 256 256 256 256 256 256 257 257 257 258 258 259 260 259 259 259 259 259 258 258 258 258 258 258 258 257 257 256 256 257 256 256 256 256 256 256 256 256 256 256 256 256 256 256 256 255
253 253 253 254 254 254 254 255 255 254 254 255 255 256 256 256 256 255 255 255 255 255 255 256 256 256 257 256 257 257 257 258 258 256 257 258 257 257 257 257 257 257 257 257 256 256 256 256 257 257 257 258 259 258 258 258 258 258 258 258 258 258 258 258 258 257 257 257 257 257 257 256 257 256 256 256 256 256 256 255 256 256 255 256 256 255 255
253 253 253 253 253 252 252 253 253 253 254 255 255 255 256 256 255 255 256 255 255 255 255 255 255 256 256 257 257 257 257 257 258 258 258 257 258 257 257 257 257 257 257 257 256 256 256 256 256 257 258 259 258 258 258 258 258 257 257 257 257 257 257 255 255 255 255 255 256 256 256 256 256 256 255 255 255 256 256 256 255 255 254 254 254 255 255
252 252 252 253 253 253 253 253 252 253 253 253 254 255 255 255 254 255 255 255 255 255 254 254 254 255 255 256 256 256 257 257 257 257 257 257 257 257 257 257 257 257 257 258 258 258 258 258 257 257 258 258 258 258 257 257 257 257 256 257 256 257 256 256 256 256 256 256 256 255 255 255 255 254 255 255 255 254 255 254 254 254 254 254 254 254 255
252 252 252 252 253 253 253 252 253 253 253 253 253 253 253 254 254 254 254 254 254 253 253 253 252 253 254 254 255 255 256 256 256 257 257 257 257 257 257 257 257 257 257 257 257 257 257 256 255 255 255 257 257 256 255 255 256 257 256 256 256 256 256 256 256 256 255 255 255 255 255 255 255 254 254 254 254 254 254 254 254 254 255 255 255 255 255
Wind_Speed
16 17 18 16 15 13 11 12 13 14 15 14 13 15 18 17 13 17 15 16 19 19 21 24 27 24 20 18 17 12 13 8 3 3 6 5 6 6 7 8 8 9 11 12 13 11 9 8 9 9 7 6 7 8 9 8 9 10 9 10 10 10 11 11 11 9 8 8 8 10 10 10 11 11 9 9 9 8 8 8 6 7 7 7 8 8 7
14 16 19 17 16 15 14 15 17 15 13 17 19 19 21 23 20 19 19 21 23 19 20 24 27 22 18 17 12 4 7 7 8 7 10 9 8 7 7 8 11 13 15 15 13 12 9 9 10 8 7 8 9 10 10 9 9 9 9 10 10 10 10 10 8 8 8 8 8 8 11 10 11 11 9 9 9 8 9 8 7 7 7 7 7 7 7
13 18 17 17 17 14 15 13 15 14 15 15 16 17 18 20 20 20 22 23 24 20 22 23 23 23 19 6 3 9 10 10 12 13 16 14 7 5 9 13 14 15 15 14 14 15 15 15 14 9 7 7 8 10 10 9 9 9 9 9 9 9 10 8 8 8 8 8 8 9 10 10 10 10 9 9 9 9 8 8 8 7 7 7 7 6 7
10 15 15 18 16 11 11 14 17 19 20 20 17 14 12 13 16 20 18 17 19 22 20 17 21 25 22 21 21 18 10 10 10 12 14 15 15 16 17 17 16 16 15 14 15 17 18 15 12 10 9 9 9 11 9 9 8 8 8 9 9 9 8 8 8 9 8 8 9 9 9 10 10 6 7 7 7 6 6 6 7 7 7 8 7 7 6
11 13 12 11 10 7 9 13 21 24 23 18 15 15 16 21 21 17 14 17 17 19 18 18 20 23 20 17 18 16 17 16 14 13 13 15 16 18 20 20 20 19 19 18 20 19 15 12 11 11 11 9 12 12 8 8 7 8 9 9 8 8 8 8 9 9 8 9 9 9 9 9 7 7 7 7 7 7 7 6 6 7 7 8 8 7 7
5 12 9 5 7 15 12 12 21 16 18 19 19 19 22 23 18 15 17 17 16 17 20 24 25 23 18 17 19 18 17 17 15 12 13 15 18 19 19 20 21 21 19 17 16 14 11 10 10 9 9 10 8 6 6 7 9 8 8 8 8 8 8 8 8 8 8 7 8 9 8 7 7 8 8 8 6 5 6 6 7 7 5 7 6 7 8
8 7 6 9 17 13 9 12 11 14 18 19 21 24 25 23 18 17 19 20 22 26 25 25 23 19 17 15 18 18 15 13 12 15 18 20 20 20 20 21 21 20 19 18 15 4 7 8 5 5 4 4 4 5 6 7 7 8 7 7 7 7 8 8 8 8 8 9 9 7 8 8 8 9 10 7 8 6 7 7 8 9 9 8 6 5 5
5 7 8 13 6 3 8 10 10 11 15 19 17 20 22 23 20 18 19 23 26 26 27 25 20 18 18 18 20 23 25 17 15 19 21 23 22 21 20 20 19 18 18 18 17 14 3 5 5 4 5 5 5 6 6 7 7 7 7 7 7 7 7 7 8 7 8 6 6 7 9 8 9 9 9 9 8 7 6 5 3 3 2 4 5 6 5
10 8 14 18 7 16 12 11 10 11 12 10 14 13 14 18 18 18 19 23 23 25 24 22 17 14 14 16 20 25 21 16 18 22 24 22 21 21 21 20 19 18 15 12 5 2 4 3 5 4 4 5 6 6 6 5 6 6 6 6 6 6 6 6 7 6 6 8 5 6 8 8 8 8 8 8 6 4 7 5 5 6 5 5 5 5 6
11 14 15 12 12 16 13 18 20 16 11 12 10 11 15 12 14 14 19 23 26 25 19 15 13 7 8 13 18 25 18 15 18 18 17 20 20 19 19 17 15 10 2 1 3 3 5 5 4 5 6 7 7 6 6 5 6 5 5 6 6 6 6 6 6 6 6 7 6 6 8 9 8 7 7 5 5 6 6 7 6 6 5 5 4 5 6
9 11 14 14 13 10 5 16 15 13 11 11 8 10 13 7 16 17 18 20 22 21 15 10 10 5 10 15 18 21 18 11 9 11 13 16 15 14 14 14 13 8 3 2 3 4 4 6 6 6 7 8 7 6 6 6 6 6 6 6 7 7 7 6 6 6 6 6 7 7 8 8 8 8 7 6 5 6 5 5 6 5 5 5 5 5 5
14 13 13 13 7 8 7 10 10 6 4 3 4 15 12 7 19 19 13 16 18 12 10 12 10 9 13 16 17 19 18 7 5 9 12 11 10 10 8 2 1 1 3 3 2 4 5 5 7 7 7 6 5 7 6 6 6 6 6 6 6 6 6 6 6 6 5 7 7 8 8 7 6 7 6 5 7 6 6 4 4 4 4 4 6 3 4
19 20 16 11 9 6 9 12 14 1 3 5 10 15 2 10 10 10 9 12 9 9 15 12 10 12 16 17 18 19 17 9 4 3 4 3 4 6 4 1 3 2 2 2 3 2 2 4 5 5 5 7 5 6 6 5 4 5 5 5 6 6 6 6 4 4 5 6 8 6 7 8 7 6 5 7 7 8 7 6 6 5 6 5 5 5 4
18 16 16 13 9 3 1 6 8 2 4 11 10 2 6 7 13 16 10 10 12 12 13 12 12 12 14 16 16 19 20 19 10 3 3 4 4 1 4 3 1 2 2 2 3 4 4 4 4 4 4 5 6 6 5 4 5 5 6 6 6 6 4 4 4 5 5 5 6 6 7 8 7 6 5 7 7 7 5 6 8 7 6 5 4 4 3
10 10 13 12 14 1 5 6 6 3 6 3 3 2 11 10 12 14 15 7 5 7 11 14 15 15 15 15 16 17 17 17 15 9 6 8 6 4 1 1 2 2 3 3 3 4 3 3 3 4 5 5 4 4 4 5 5 6 6 6 6 5 5 6 6 7 6 7 6 5 6 6 8 7 7 6 7 6 7 7 7 7 6 5 5 4 4
9 10 11 7 1 3 2 3 2 5 6 6 6 6 12 12 9 11 13 11 4 4 5 11 15 15 15 17 17 16 15 14 9 6 5 4 2 0 1 2 4 4 4 5 5 4 4 4 4 3 5 6 5 5 5 5 5 5 5 4 5 7 7 8 8 7 7 7 7 6 7 7 7 8 7 7 7 5 6 7 6 6 4 4 4 5 4
6 5 4 2 1 4 4 3 6 9 10 7 6 5 7 9 10 7 6 14 12 2 6 8 10 13 15 16 15 14 15 15 12 8 4 3 4 2 2 2 3 2 4 7 6 6 5 5 5 4 4 8 7 7 5 5 4 5 6 7 8 8 8 7 7 6 6 6 6 6 6 7 7 6 7 8 6 5 6 6 6 6 6 5 5 5 5
4 6 8 9 8 9 10 6 4 7 7 8 5 6 9 8 10 8 8 13 11 8 5 7 9 9 13 14 14 15 14 12 11 5 2 1 1 1 1 1 2 1 4 4 5 6 6 5 5 4 3 6 10 6 7 6 6 7 8 9 9 9 7 7 7 7 8 7 6 7 6 5 6 6 7 6 6 6 5 5 5 5 6 6 6 5 5
5 6 6 5 6 9 8 9 4 5 8 9 7 5 8 9 10 11 6 7 9 9 7 8 11 14 14 13 14 13 13 13 11 7 4 2 1 1 1 0 1 1 3 4 5 4 6 4 4 4 5 4 5 6 6 6 8 9 9 10 10 8 8 7 7 7 7 6 6 6 5 6 6 6 5 5 5 5 5 5 5 5 5 6 6 5 5
8 8 11 14 12 8 5 6 8 12 9 7 3 7 8 8 10 9 8 5 8 7 7 9 9 12 12 9 11 10 7 5 5 3 2 2 1 1 2 2 1 1 1 3 4 4 4 4 3 3 4 5 5 6 7 8 8 9 10 9 8 8 9 8 6 6 6 8 8 6 5 5 6 5 4 4 5 5 5 5 6 6 6 6 6 6 6
6 11 14 15 14 11 9 10 8 7 7 7 8 8 9 10 11 13 12 6 9 8 9 9 8 10 12 11 10 8 6 6 4 3 2 1 1 2 2 2 2 2 2 5 5 5 4 3 4 5 6 5 5 6 8 8 8 10 9 10 10 10 8 7 7 6 7 6 6 6 6 6 6 4 3 4 4 4 5 2 2 4 5 4 3 4 4
8 8 8 5 12 9 8 8 11 10 9 7 9 9 11 12 14 13 13 13 8 8 8 7 6 9 11 9 6 6 7 5 4 3 2 2 2 1 2 2 2 4 4 6 8 7 4 4 5 6 6 5 6 7 7 7 8 10 9 9 9 8 7 7 7 7 6 6 6 7 7 6 5 7 13 13 7 4 3 7 11 11 6 2 3 4 5
10 9 10 8 12 13 11 13 12 14 13 10 9 10 13 15 15 14 11 13 13 11 9 7 6 8 9 10 6 7 6 5 4 4 5 4 4 3 3 4 3 4 4 6 7 7 4 5 7 8 8 6 6 5 6 6 8 10 11 8 7 7 7 7 7 7 6 7 6 6 6 6 5 7 7 10 15 14 11 10 10 11 11 12 11 10 8
16 14 15 14 12 12 12 14 15 14 11 10 9 9 14 15 15 14 12 11 10 13 10 5 7 7 8 9 5 7 7 4 4 5 5 4 3 3 1 2 5 8 7 4 4 4 3 5 5 5 6 5 4 3 4 5 7 8 9 9 7 7 7 7 8 7 6 6 7 7 6 5 6 6 7 9 9 13 13 13 14 14 13 14 14 14 14
11 10 12 12 13 12 10 12 13 12 10 6 8 12 18 17 15 12 10 12 9 10 10 11 7 7 8 9 8 9 8 5 3 3 4 5 5 5 3 2 3 3 3 3 4 4 4 5 5 6 7 4 3 2 2 4 5 7 8 8 8 7 7 8 6 8 7 6 6 5 7 8 6 5 7 7 9 9 10 14 16 15 15 15 16 15 14
8 11 14 14 12 10 8 12 15 16 12 5 8 10 14 12 12 8 11 11 12 8 8 10 10 7 5 6 8 6 5 6 4 3 3 6 6 6 6 6 5 5 5 4 3 4 4 4 4 5 7 4 3 3 1 2 3 4 5 5 6 7 9 9 8 5 5 7 7 6 6 7 7 6 5 6 7 8 9 8 9 12 14 15 14 15 14
9 9 10 13 14 13 11 12 12 17 11 4 7 10 13 13 11 8 10 9 8 7 8 9 9 5 3 6 7 6 7 4 2 4 4 3 5 6 6 6 6 6 5 5 4 4 5 4 5 6 5 3 3 3 2 2 4 4 4 5 5 7 9 8 5 7 7 6 6 7 7 7 6 6 6 5 7 7 7 8 8 7 6 7 10 12 11
13 8 8 7 11 12 14 15 14 11 11 9 8 10 12 9 7 10 13 12 9 7 7 7 6 6 7 5 5 5 2 6 7 5 6 6 4 5 6 7 7 6 4 3 5 5 4 4 5 6 4 3 3 3 2 2 4 6 6 6 6 4 5 6 6 6 6 6 6 7 7 5 4 5 6 6 5 6 5 5 6 7 6 4 5 10 17
7 9 9 8 11 14 15 15 16 14 14 15 11 5 6 9 11 11 13 14 9 6 7 6 3 5 7 5 4 5 5 5 5 7 6 4 5 6 7 8 7 6 4 4 4 4 4 5 4 5 3 3 3 2 1 3 5 7 7 6 4 3 2 4 5 4 5 6 5 6 6 6 6 6 5 4 4 6 6 6 7 6 6 5 5 7 8
12 10 11 12 13 14 14 14 14 14 14 14 12 8 6 7 10 12 12 9 4 7 8 4 3 6 4 6 6 6 6 7 4 1 4 4 4 5 7 7 7 5 5 3 3 4 4 4 4 5 2 3 3 2 1 4 5 6 6 6 5 5 4 6 6 7 6 6 6 9 6 4 4 5 5 5 5 5 5 7 7 8 7 5 6 6 6
15 14 11 13 9 10 11 14 13 12 11 12 15 14 10 5 8 12 12 10 6 7 7 5 6 6 3 4 2 2 2 1 2 3 3 3 4 4 5 6 7 7 6 5 5 4 5 5 5 4 2 3 3 2 1 5 6 7 5 6 5 7 9 9 7 5 4 5 5 5 4 5 5 5 5 5 6 6 6 7 7 7 5 6 6 5 5
15 15 11 4 7 11 11 9 12 12 13 12 13 13 14 17 17 16 13 11 9 8 7 6 7 7 3 1 2 3 3 3 3 3 3 3 3 3 2 2 3 5 7 8 4 4 4 5 5 2 2 2 2 1 2 5 5 4 4 5 5 4 5 7 5 5 3 3 4 4 3 6 6 6 5 5 6 7 7 8 8 7 7 5 5 5 6
11 17 18 15 17 14 11 7 8 14 13 15 14 12 12 12 15 17 16 13 11 8 7 8 5 4 3 4 5 4 4 3 2 1 2 3 3 4 4 4 5 9 9 6 5 4 4 5 3 2 2 2 2 1 2 3 3 4 4 4 4 4 5 4 5 5 4 4 3 3 4 4 6 5 5 5 5 5 6 7 7 7 5 5 5 4 5
5 6 8 7 6 8 12 16 10 10 12 11 10 11 12 12 13 15 17 17 14 13 10 8 4 4 5 6 6 5 5 4 3 3 3 3 3 4 5 5 5 7 6 6 6 5 4 4 3 2 2 2 2 2 2 2 2 3 3 4 5 5 5 4 4 4 4 3 3 4 5 5 5 5 4 4 5 5 5 6 5 4 4 4 3 2 6
9 11 11 11 11 12 12 13 14 12 11 14 14 10 8 10 12 13 16 17 18 14 10 4 3 5 7 8 7 6 8 8 5 5 5 4 3 4 4 6 6 6 7 7 6 5 4 3 3 3 4 4 4 4 4 4 3 4 3 4 4 4 4 3 3 3 3 4 3 3 3 4 4 4 4 4 4 4 5 4 5 5 5 4 3 3 4
9 10 9 9 9 10 11 12 12 13 13 12 12 13 13 12 13 14 14 14 15 16 11 5 3 5 7 8 8 8 8 6 6 7 7 6 5 4 4 4 5 6 6 6 5 4 4 4 5 4 3 4 4 5 5 4 5 4 4 4 4 4 3 4 4 5 3 3 3 3 3 5 6 4 3 3 3 3 4 4 5 4 4 4 4 4 3
8 9 10 10 10 10 12 12 11 12 12 11 11 12 14 14 13 13 12 13 12 13 11 6 4 7 9 7 4 2 2 4 5 6 7 7 7 6 6 5 4 4 3 3 3 4 4 4 3 4 4 4 4 4 6 6 4 3 3 4 4 5 5 4 4 4 3 3 4 4 5 4 3 2 2 2 2 2 3 3 3 3 3 3 4 4 3
10 9 10 10 10 11 12 12 11 12 14 17 14 12 12 13 11 11 12 11 11 10 10 7 6 4 2 3 4 4 4 4 7 8 9 9 8 9 7 5 3 2 2 2 2 3 3 2 2 4 5 5 5 4 5 7 5 4 3 4 4 4 3 4 4 3 3 3 3 2 2 3 3 3 2 2 2 3 3 3 3 3 3 3 3 3 3
10 8 8 8 9 10 12 11 10 10 11 15 17 15 12 11 13 12 11 9 7 7 8 6 3 2 5 6 5 5 5 5 6 9 9 9 7 9 8 5 4 4 3 3 2 2 2 3 3 5 5 5 5 5 5 6 6 4 4 4 4 5 4 4 4 3 3 3 2 2 2 2 3 3 3 2 2 2 2 3 3 3 3 2 3 2 2
10 9 10 10 10 10 11 11 10 10 11 11 12 13 12 12 11 11 11 9 7 7 7 6 5 3 4 6 6 5 5 5 6 8 9 9 13 12 7 7 6 5 5 5 4 3 3 4 5 5 5 5 4 4 3 4 4 3 4 4 5 4 4 4 4 4 3 3 4 4 3 3 3 3 2 2 2 2 2 2 2 2 3 2 2 1 1
10 10 10 10 10 9 9 10 11 11 10 10 10 11 11 12 12 11 10 8 7 7 7 6 5 1 3 5 7 7 7 8 9 9 7 7 7 5 6 5 4 4 5 4 3 3 4 5 5 5 5 4 4 4 3 4 4 4 5 4 5 5 4 4 4 4 3 3 2 2 2 2 3 3 2 2 2 2 2 2 2 2 2 2 1 1 1
10 11 11 11 10 9 10 9 10 10 9 8 9 10 11 12 11 10 10 8 6 5 6 7 7 4 5 7 7 8 8 8 8 9 9 6 4 4 7 4 3 3 4 3 4 4 5 6 6 6 5 5 4 5 6 3 5 5 5 4 4 4 5 4 4 3 3 3 3 3 2 2 3 3 2 2 2 2 2 2 2 1 1 1 1 1 1
11 11 11 11 10 10 9 9 9 9 11 10 9 10 10 10 10 9 8 7 5 4 5 4 4 6 6 7 8 8 6 7 8 8 9 9 11 9 6 6 4 3 4 3 5 5 6 6 6 5 6 6 4 6 7 5 5 5 5 5 4 5 5 5 4 3 3 3 2 3 2 2 2 2 2 2 2 2 2 1 1 1 1 1 1 1 1
11 10 10 10 11 10 10 9 8 8 8 9 9 10 9 8 9 10 9 7 5 5 4 4 4 5 7 7 8 8 7 5 5 5 7 7 9 10 8 5 4 3 5 3 6 6 6 6 5 6 8 8 8 8 4 5 5 5 4 4 4 4 4 4 3 3 3 3 3 2 2 2 2 2 2 2 1 1 1 1 1 1 1 1 1 1 2
10 10 11 11 11 10 8 7 8 8 8 9 9 8 9 8 9 9 9 8 7 6 6 5 5 5 5 6 6 6 5 5 4 1 5 6 7 5 3 4 5 4 5 8 7 7 6 6 7 8 8 9 9 8 5 5 5 5 5 5 5 5 4 4 4 4 4 3 3 3 2 2 2 2 1 1 1 1 1 1 1 1 1 1 1 2 2
9 9 10 10 9 9 8 7 7 7 7 7 7 7 9 10 9 8 9 8 7 6 6 6 6 5 6 6 6 6 7 7 7 7 7 4 5 6 4 5 4 5 8 9 7 7 6 8 9 9 8 8 8 7 6 5 5 5 5 5 5 4 5 4 4 4 4 3 3 2 2 1 1 1 1 0 0 0 0 0 0 1 1 2 1 1 1
7 8 9 9 8 8 8 6 6 6 7 7 7 7 9 9 9 7 7 8 7 6 7 6 6 6 6 5 4 4 4 7 8 8 7 8 9 8 7 8 8 8 7 6 7 6 5 6 7 8 10 9 8 6 6 6 6 6 6 5 5 5 4 4 3 3 3 2 2 2 2 1 1 0 0 0 1 1 1 1 2 2 1 2 2 2 3
7 8 9 10 11 11 8 7 7 7 7 7 7 6 7 8 9 8 8 7 7 6 6 5 5 6 7 7 7 6 4 4 9 7 6 6 6 6 6 6 7 10 11 10 10 9 11 9 9 8 7 7 5 6 6 5 5 5 4 4 4 3 3 2 2 2 2 2 1 1 1 1 1 1 1 1 1 1 2 2 2 2 2 2 3 3 3
7 8 8 8 9 12 11 8 7 7 7 8 8 6 7 7 6 7 8 8 9 7 6 6 8 7 8 7 7 6 7 7 5 7 5 6 6 6 7 7 8 8 7 7 6 5 7 9 8 7 7 6 5 5 5 5 4 3 3 3 3 3 2 2 2 1 1 1 1 1 0 0 1 1 1 2 2 2 2 3 3 3 3 3 3 3 4
7 6 7 8 8 9 9 8 7 7 7 7 7 7 8 7 6 7 7 6 6 6 6 6 6 7 7 7 8 8 8 10 10 9 8 7 7 7 6 6 7 8 8 6 6 5 5 7 8 7 5 5 5 4 4 4 4 3 3 2 2 2 2 1 2 2 1 0 0 0 1 1 1 2 2 2 2 3 3 3 3 4 6 4 3 4 4
7 7 6 7 7 7 9 8 7 7 7 8 8 8 8 7 6 6 6 7 6 6 6 7 7 7 7 8 8 8 8 8 9 8 7 7 6 7 7 6 6 6 6 6 5 5 4 5 4 4 4 4 4 4 3 3 2 2 2 2 1 1 1 1 0 1 1 1 1 1 1 1 2 2 2 3 3 3 3 3 3 3 4 4 4 4 5
6 6 5 5 6 6 7 8 9 8 8 8 8 8 8 8 7 7 8 11 8 7 7 6 7 8 8 7 7 7 7 8 7 7 7 7 6 6 6 7 6 6 6 6 5 5 5 4 4 5 5 3 3 3 3 2 1 1 1 1 0 0 0 0 0 1 1 1 1 2 2 3 3 3 3 3 3 3 4 4 4 4 4 4 5 5 5
Wind_Direction
263 268 273 275 283 275 256 227 216 214 213 215 212 224 233 231 230 244 245 245 244 249 256 264 265 267 273 277 274 262 241 241 149 237 256 264 258 255 238 235 230 216 231 243 239 230 213 202 210 209 185 185 208 224 217 198 195 205 194 188 196 199 201 205 207 201 198 197 194 189 185 182 187 192 187 182 179 179 183 188 181 185 183 186 186 196 202
268 269 266 266 264 268 270 267 265 254 225 210 211 221 225 227 236 243 252 259 258 256 256 259 265 275 278 283 291 265 225 215 239 236 253 239 229 233 245 251 251 241 239 232 225 228 211 208 220 210 188 185 199 213 214 197 196 204 194 194 193 199 205 207 202 196 194 187 186 176 181 190 190 191 185 179 177 180 182 182 178 175 174 177 187 190 190
261 260 264 270 262 259 265 265 265 260 258 253 222 220 227 234 243 246 248 251 259 258 254 262 275 278 280 289 212 251 232 230 233 245 257 260 243 234 245 256 255 256 252 246 240 235 230 217 210 203 196 184 188 211 214 194 196 198 196 193 193 198 205 199 194 196 197 184 176 182 185 185 190 191 172 165 175 179 179 177 166 162 168 177 186 186 188
243 253 252 259 261 256 257 263 258 256 249 241 238 232 221 225 235 240 244 251 255 261 265 268 269 272 274 274 276 275 262 243 233 238 249 258 263 260 257 255 256 256 257 255 247 243 240 231 209 196 196 191 191 215 205 192 188 181 195 198 193 200 198 190 191 194 194 179 180 182 178 185 188 182 167 171 179 175 173 173 170 153 168 183 183 188 191
238 253 239 248 265 266 241 237 242 238 238 242 244 237 229 224 225 235 235 239 244 257 267 267 265 264 272 277 277 278 270 266 260 246 247 258 257 259 260 259 257 259 258 258 258 252 242 221 213 206 205 197 209 211 192 184 163 181 191 193 192 198 198 189 193 192 191 184 181 177 175 168 173 170 168 167 172 168 174 175 163 173 170 179 183 185 190
233 246 253 247 255 243 233 220 232 229 233 231 234 239 234 231 214 227 233 250 256 260 262 259 257 260 263 269 269 267 271 277 276 262 260 260 259 257 258 258 258 257 257 255 255 251 231 214 211 205 190 201 207 187 172 161 171 181 183 188 190 192 193 191 188 187 185 173 176 171 164 165 165 168 168 174 162 156 163 158 169 173 168 180 176 182 188
238 249 247 245 237 236 232 239 239 230 235 236 234 235 238 239 233 233 240 247 250 250 252 258 262 268 276 269 272 276 268 269 277 273 269 264 259 256 257 257 258 261 262 261 256 189 202 195 162 134 148 157 142 147 164 167 172 171 181 180 188 190 191 190 185 182 176 169 170 164 164 161 161 167 170 151 165 163 167 170 174 179 181 182 182 176 173
254 249 228 247 230 157 214 250 244 232 231 232 235 243 245 246 245 240 234 235 243 247 251 254 258 270 275 276 272 270 268 265 267 266 261 259 259 261 261 261 262 262 262 260 254 245 180 131 143 144 155 147 159 174 163 168 164 171 172 179 185 186 189 189 187 181 169 168 162 150 152 153 160 164 161 161 136 153 159 157 139 118 129 159 168 169 170
238 228 240 247 310 297 275 271 244 214 216 207 213 242 242 236 237 236 241 244 241 245 249 257 266 269 273 275 274 265 262 263 249 251 258 260 263 263 264 264 264 263 264 271 289 52 102 118 116 144 136 145 166 157 159 161 153 160 164 174 184 183 182 183 180 174 155 157 158 142 152 154 162 163 161 159 149 127 149 148 146 165 170 168 168 167 164
218 236 250 254 247 247 242 237 249 243 227 229 217 227 251 243 242 229 237 241 249 252 249 249 253 254 266 269 268 270 267 251 253 250 255 260 261 262 264 268 267 272 308 72 87 107 115 134 141 138 151 160 161 150 147 144 145 158 165 179 179 177 180 176 169 169 161 161 155 149 152 160 161 160 157 144 136 150 147 159 164 162 154 149 152 165 167
213 221 233 239 241 241 230 256 252 252 246 240 244 247 254 221 256 241 238 246 250 253 260 262 255 227 246 252 259 270 274 267 259 260 249 256 261 261 260 261 264 249 205 148 125 134 155 161 154 151 155 153 146 143 143 148 155 162 175 178 175 173 173 168 165 160 147 151 151 152 158 161 159 154 156 149 140 144 148 134 143 137 148 147 149 157 168
235 241 238 239 228 259 252 273 272 296 279 250 217 253 258 210 242 251 251 253 262 283 275 259 238 215 245 253 263 269 274 292 256 250 261 264 269 271 272 318 27 67 87 102 151 171 188 167 132 151 147 145 139 141 146 146 159 172 173 170 165 163 160 157 152 142 144 150 151 153 155 149 147 144 134 121 134 132 136 130 121 134 141 126 150 120 144
232 234 247 258 255 256 265 268 278 51 154 185 230 238 350 354 327 329 312 294 284 239 253 248 249 224 239 253 264 273 282 284 267 273 306 314 349 326 348 340 84 120 154 197 214 178 128 112 128 140 143 127 137 133 133 144 164 160 154 147 148 148 143 138 130 131 135 146 143 140 142 140 136 131 130 134 135 141 142 140 139 134 144 129 130 112 115
230 232 241 242 268 260 208 280 334 90 134 228 244 359 316 302 330 321 329 338 343 319 274 264 254 256 252 255 261 268 272 273 274 228 253 291 286 56 36 53 134 147 141 117 85 76 79 116 127 137 131 128 124 126 134 140 141 133 131 135 134 128 124 115 111 110 110 110 118 122 123 127 127 116 116 124 135 136 124 132 142 140 138 137 131 132 132
232 229 240 244 243 309 56 337 306 146 228 309 360 301 320 333 309 316 312 314 320 338 321 316 316 312 301 283 271 267 267 273 275 266 246 243 245 230 154 187 210 165 130 125 111 101 101 115 119 122 121 116 104 112 113 115 112 117 120 119 112 106 103 105 108 107 109 112 111 112 119 124 123 117 121 121 128 133 134 134 131 138 144 139 126 123 114
249 230 228 237 83 104 356 37 226 323 300 337 335 354 311 313 314 307 310 304 294 309 284 292 301 302 305 305 304 302 300 299 316 351 357 344 341 128 194 182 169 179 142 125 117 108 102 93 88 90 115 111 112 107 104 102 99 98 101 97 94 99 95 99 104 104 109 111 111 116 121 118 118 125 131 129 130 128 135 138 132 129 129 122 117 109 109
220 255 274 103 126 301 277 224 243 245 280 297 297 290 275 287 295 300 279 295 299 209 267 273 269 287 288 289 291 293 296 302 307 302 279 250 267 257 215 172 148 184 151 139 128 117 105 97 100 97 116 124 121 114 110 111 111 103 100 101 101 96 99 100 97 100 101 103 108 111 114 122 122 118 120 131 128 126 132 130 135 133 134 131 131 135 130
311 264 251 277 283 272 280 251 226 275 272 273 268 265 282 275 281 289 275 287 294 287 237 264 275 258 272 281 287 289 288 288 291 290 283 269 302 357 37 81 180 126 101 111 125 121 113 108 106 107 115 136 132 129 127 124 117 116 115 111 106 108 105 100 105 107 103 98 101 108 109 111 111 121 130 135 129 135 131 127 128 129 138 141 141 141 142
283 271 138 177 251 288 306 306 261 223 225 250 268 243 225 252 275 283 265 267 283 288 279 257 267 278 279 275 276 276 283 286 283 279 261 254 244 253 242 216 81 88 138 127 129 117 116 113 103 106 109 105 111 120 122 119 121 122 119 117 114 114 113 108 111 114 113 116 113 111 110 107 113 122 128 121 124 131 134 135 137 137 137 141 140 145 151
261 287 331 327 322 291 262 274 300 297 299 294 237 230 251 265 279 279 269 279 275 275 264 249 253 265 277 282 282 284 280 281 302 295 272 226 129 104 79 92 48 49 92 69 96 92 92 92 94 96 98 102 111 111 113 118 122 120 119 121 115 111 118 120 119 120 113 112 115 116 110 110 116 118 114 124 130 136 149 150 150 150 152 156 156 159 154
268 284 286 285 279 273 276 267 262 267 277 286 285 279 284 291 291 291 283 210 248 263 271 291 288 284 283 276 271 273 276 272 265 257 235 202 163 131 118 125 97 158 134 101 98 84 77 64 70 66 74 87 104 103 115 125 129 126 123 120 118 118 119 119 113 114 119 123 117 112 109 87 66 65 120 135 113 73 36 50 126 152 152 143 145 144 131
274 268 280 306 298 303 293 300 299 294 282 269 277 284 287 288 289 281 273 276 229 214 244 261 273 271 277 279 267 265 261 250 231 208 183 160 133 112 128 131 114 90 95 103 116 110 106 100 97 97 108 110 109 123 125 130 132 127 122 116 122 120 121 119 124 125 123 115 112 114 111 105 97 74 55 57 62 94 89 65 61 54 67 114 122 123 108
265 281 273 273 280 281 281 285 284 286 294 286 275 273 278 286 286 287 274 278 278 255 235 211 227 253 263 277 273 261 253 239 210 190 179 174 175 165 154 130 114 111 104 109 107 121 131 122 115 120 120 122 119 125 132 136 136 134 136 131 126 131 130 136 137 130 123 124 126 117 118 116 104 102 93 69 70 75 82 80 82 85 88 88 89 97 114
267 272 278 277 271 274 282 280 284 286 290 296 292 284 286 280 281 284 275 247 265 282 280 237 207 234 268 278 268 261 262 242 202 182 170 149 141 134 135 138 133 130 142 150 146 123 86 75 76 53 87 84 89 98 117 128 137 138 143 140 137 143 141 134 132 129 121 120 124 123 118 118 117 119 111 107 84 75 81 85 88 90 93 96 100 103 105
265 265 272 276 279 281 283 287 287 290 287 274 273 277 284 286 284 283 278 279 267 260 271 274 251 206 232 260 257 259 262 257 259 215 155 124 122 127 118 115 167 143 127 110 109 116 122 128 126 117 106 94 52 54 87 130 144 148 149 148 143 141 137 137 130 131 126 128 128 127 134 132 129 125 126 125 121 112 86 84 86 88 90 95 100 104 106
255 265 270 275 278 283 290 289 282 282 281 226 232 248 268 271 271 282 274 269 275 261 251 259 267 247 190 228 236 240 248 237 196 198 202 163 148 140 165 184 153 109 124 121 117 122 119 118 117 119 111 97 50 24 10 114 143 145 145 142 146 150 148 146 136 125 125 136 134 132 123 126 128 124 117 122 126 125 125 119 95 85 86 94 101 106 110
272 273 283 288 287 279 270 269 280 290 287 227 227 258 269 277 282 275 270 270 264 267 260 261 263 266 223 237 241 237 223 194 162 205 231 205 177 155 130 115 131 135 137 132 131 126 126 125 122 103 91 44 10 353 341 59 124 118 111 108 108 105 120 130 86 124 131 128 128 129 131 132 130 126 121 121 127 131 137 130 125 122 118 110 110 111 117
278 313 351 314 295 296 296 296 302 315 304 285 276 275 282 294 296 292 285 281 274 261 263 265 268 256 238 223 201 223 209 199 210 198 196 210 176 115 111 111 113 125 127 123 123 122 125 125 101 86 75 21 6 341 341 65 115 118 117 115 117 104 127 131 128 127 129 132 131 133 134 129 115 107 114 119 125 123 114 98 106 112 98 77 88 113 112
9 4 343 325 302 303 307 304 296 282 276 274 272 270 295 296 284 280 276 273 284 305 285 278 261 261 263 259 214 214 206 215 218 208 195 113 116 110 113 117 117 114 120 117 109 118 117 116 115 107 68 13 353 345 347 79 95 109 122 126 120 118 127 134 135 103 110 116 121 119 112 100 106 112 112 113 114 121 121 122 120 109 114 121 102 81 69
333 336 326 315 307 299 296 291 287 294 303 314 330 322 305 288 286 279 280 291 296 276 270 282 266 252 240 258 250 251 243 233 231 158 105 107 104 115 119 113 100 93 99 126 130 117 114 125 119 108 73 359 346 331 4 90 107 129 130 132 134 137 131 133 125 120 118 104 101 111 107 103 106 117 115 117 121 117 126 130 133 136 134 139 131 129 128
315 310 307 293 303 338 334 317 317 314 326 345 344 329 312 282 269 279 285 290 281 267 266 256 257 257 233 225 258 330 346 14 59 77 66 81 77 87 123 143 144 170 175 139 125 122 112 104 85 81 30 344 328 318 53 99 109 108 112 94 92 102 117 123 125 122 114 113 119 122 111 126 129 126 131 131 128 127 128 140 142 146 143 142 148 144 130
312 310 314 343 13 332 328 335 334 327 331 335 332 328 331 332 321 306 298 291 278 274 275 259 241 242 233 126 85 79 53 37 50 76 96 77 76 62 67 39 41 90 96 94 82 67 89 92 79 48 6 336 334 322 59 98 125 116 115 121 117 124 115 118 121 111 103 117 124 117 127 135 140 138 134 141 142 145 145 147 156 158 159 150 155 151 147
329 326 319 335 339 335 319 329 348 321 328 322 312 311 314 314 313 308 302 295 294 278 257 255 241 215 158 118 101 101 101 96 72 86 115 104 67 36 19 34 48 72 76 66 60 54 65 82 82 53 19 4 359 358 26 91 109 114 122 119 114 105 114 101 103 116 116 121 124 132 126 136 141 143 146 139 135 139 145 150 153 157 162 168 154 139 153
290 270 285 299 279 289 304 306 316 308 303 296 291 301 308 313 314 308 307 307 296 285 267 254 210 160 151 153 140 137 144 143 199 202 172 128 92 48 42 51 57 69 70 66 66 62 65 64 63 65 54 33 27 29 29 32 74 91 95 106 116 119 113 115 123 121 125 116 109 110 118 129 141 145 140 140 143 146 144 152 156 148 143 151 129 120 166
295 289 287 285 283 278 279 281 294 300 301 301 307 306 301 304 307 305 308 307 300 294 290 273 192 162 164 155 157 177 185 195 180 141 144 124 92 69 71 87 89 86 79 65 60 61 53 53 60 76 74 54 43 34 37 46 59 91 80 85 82 90 98 111 110 107 97 102 100 109 101 105 108 98 107 120 135 133 144 149 154 158 155 151 137 136 158
301 297 293 288 285 282 281 281 280 281 283 283 286 295 301 302 303 303 308 303 304 305 298 273 229 180 180 182 185 189 196 177 137 134 126 117 120 113 104 107 106 95 92 75 48 41 49 60 27 34 69 64 61 42 33 55 62 68 84 96 96 90 81 76 73 73 78 92 93 63 64 87 90 89 99 102 95 112 130 135 147 149 141 139 138 146 145
298 295 294 291 289 293 290 287 284 285 284 283 287 293 295 299 298 294 295 295 302 302 296 270 222 206 209 199 111 79 73 108 124 130 131 128 129 127 126 121 97 106 110 81 34 30 29 54 19 48 68 72 67 57 34 43 87 87 91 86 91 99 102 97 88 83 75 58 62 81 102 102 96 95 101 104 113 109 119 130 132 129 129 132 134 138 147
301 300 296 297 296 296 291 286 289 290 289 286 283 282 287 294 297 297 295 296 300 306 308 290 266 235 158 108 90 92 75 86 113 126 132 133 137 126 125 123 122 130 96 62 29 31 38 44 5 57 68 68 61 55 42 42 68 88 93 93 94 91 88 93 94 85 86 86 88 104 111 106 114 114 103 89 94 109 119 114 118 120 115 115 122 127 138
309 307 302 301 301 295 293 293 292 289 290 291 297 297 295 296 297 298 294 295 298 311 309 298 300 162 157 138 113 93 91 99 119 130 135 133 126 99 74 56 59 43 53 51 67 57 58 50 68 62 70 73 68 58 41 35 43 64 72 81 81 87 86 85 86 83 82 93 103 90 86 82 76 86 90 87 84 82 81 94 104 104 104 105 115 128 123
312 311 309 312 306 304 301 299 298 296 298 297 299 303 310 310 306 304 297 301 315 329 312 306 281 225 155 115 108 95 79 103 118 120 116 99 100 104 101 72 47 38 46 47 53 60 38 27 56 66 66 55 54 65 51 47 58 69 73 78 79 76 73 79 85 90 86 83 84 79 72 74 75 77 78 89 94 93 94 91 84 85 86 87 93 110 109
309 308 310 309 306 305 307 307 305 304 305 305 308 309 315 311 310 303 300 310 317 329 326 320 284 307 52 90 90 85 82 88 98 104 112 118 108 114 102 97 43 28 28 40 56 61 39 39 54 67 64 58 56 57 78 48 53 63 66 68 74 84 89 81 79 80 88 92 92 87 85 82 87 90 81 83 79 83 87 88 90 84 92 105 102 89 97
309 311 307 307 303 307 308 308 307 309 311 315 314 317 315 315 307 296 301 307 324 359 8 12 24 59 80 85 88 85 68 65 62 48 40 31 33 103 100 88 57 38 15 41 66 63 58 54 48 50 56 60 62 39 53 65 59 61 66 63 64 64 79 84 82 78 69 68 70 77 80 87 86 86 84 82 83 84 83 83 85 93 91 100 118 133 145
316 315 310 306 304 305 306 308 311 310 313 317 326 323 321 317 313 312 316 326 349 15 34 38 56 80 94 99 100 92 87 88 82 81 69 54 43 27 67 105 94 56 6 52 57 61 52 51 47 48 39 52 61 53 57 56 60 66 66 70 75 74 69 74 78 76 75 81 77 72 72 76 80 87 92 90 88 90 94 98 112 124 134 148 148 169 188
315 311 307 309 310 312 312 310 312 316 315 319 327 327 329 328 332 334 335 341 4 27 44 60 75 96 104 106 104 107 110 106 101 98 101 96 68 45 40 69 86 63 45 66 65 64 60 54 55 55 54 58 59 59 58 56 63 64 59 63 68 74 76 75 70 70 69 75 77 77 73 66 72 79 87 96 103 100 108 126 147 156 154 154 177 187 199
317 316 315 317 316 320 321 324 324 326 321 314 320 337 346 346 350 354 354 358 10 20 23 30 22 27 43 54 58 55 53 44 359 23 119 114 101 84 58 72 78 81 68 69 70 66 58 60 64 63 65 61 60 58 61 60 58 63 63 66 66 64 63 64 63 65 66 66 68 69 70 70 66 66 69 72 79 111 150 173 190 186 177 204 198 210 210
321 320 323 325 328 330 330 328 326 328 326 331 339 354 6 4 5 7 13 8 10 28 42 46 49 46 58 71 75 76 70 58 52 37 28 25 95 123 108 84 84 82 79 77 75 73 72 69 66 63 59 59 63 66 63 63 65 66 65 65 65 65 66 64 62 62 59 63 66 71 76 80 81 81 84 102 101 146 133 127 203 219 211 215 229 227 233
325 327 326 330 332 337 343 340 346 358 3 5 7 3 3 5 9 13 11 14 19 23 33 33 29 20 19 28 58 84 89 88 69 50 63 73 78 85 93 82 74 71 75 74 77 77 75 74 62 59 63 58 59 67 66 65 65 66 65 66 66 68 70 71 74 73 78 76 77 77 79 66 78 99 115 154 207 219 214 204 222 229 218 210 215 215 222
340 338 334 338 344 348 356 9 14 17 14 15 5 4 4 6 9 11 11 13 16 23 27 36 35 32 29 34 25 26 50 89 98 74 61 77 86 91 87 88 95 97 90 84 82 80 76 74 67 60 58 66 70 70 71 71 75 75 76 75 78 76 81 90 89 91 96 108 121 139 148 147 159 173 181 196 221 221 215 216 226 235 233 224 222 224 217
351 347 344 352 360 4 5 6 12 14 9 356 356 358 354 1 16 20 16 11 10 17 22 23 34 42 48 41 41 42 43 30 56 106 97 85 85 89 93 89 82 83 86 87 85 80 71 72 66 61 62 63 67 67 66 67 65 71 71 75 78 81 80 86 86 85 98 112 135 132 192 181 210 201 219 221 225 227 218 223 230 228 232 234 235 235 232
4 7 11 10 12 14 12 11 12 4 357 0 2 1 354 352 23 17 19 21 21 13 21 22 26 33 35 38 46 46 47 61 68 76 81 75 76 76 78 78 82 81 83 90 90 89 83 74 61 53 55 70 68 71 74 76 80 79 87 90 89 104 96 88 101 116 146 176 205 212 213 226 234 229 238 240 238 235 238 233 230 232 232 237 244 245 245
19 23 19 14 17 18 19 20 10 1 3 5 3 1 1 10 11 6 7 2 2 24 32 34 32 21 22 31 35 34 39 47 57 60 67 66 65 63 60 64 63 61 63 63 61 61 58 54 48 56 64 67 75 73 67 71 77 93 86 90 83 66 115 146 187 189 198 199 238 222 232 235 228 226 229 232 229 225 228 228 233 232 226 222 227 226 232
20 25 14 9 14 18 27 21 14 14 10 10 10 8 8 5 10 13 16 11 14 20 10 18 28 15 11 14 21 29 29 35 39 42 41 46 52 58 59 58 58 50 46 49 54 54 52 47 41 35 30 47 48 60 83 84 73 66 69 85 85 223 194 241 245 244 239 217 218 235 238 231 227 225 234 229 232 232 235 234 236 236 238 235 235 237 240